Location: Belmont
(13.0833°N, 59.6000°W)
Time: 19:22:46
(UTC+00:00)

Cosmos 2056 Rocket - Pass Details

Date: 17 September 2019
Orbit: 742 x 800 km, 74.0° (Epoch: 20 October)

Event Time Altitude Azimuth Distance (km) Brightness Sun altitude
Rises 23:34:14 0° 199° (SSW) 3,274 6.9 -24.1°
Reaches altitude 10° 23:36:38 10° 202° (SSW) 2,352 6.2 -24.7°
Maximum altitude 23:41:57 65° 283° (WNW) 874 3.9 -26.0°
Drops below altitude 10° 23:47:18 10° 5° (N) 2,368 6.1 -27.3°
Sets 23:49:44 0° 8° (N) 3,297 6.8 -27.8°
